Weather History for Sedalia, MO

Change the Weather History Date:

Saturday, February 2, 2013

  Actual Average Record
Temperature  
Mean Temperature 37 °F 33 °F  
Max Temperature 46 °F 42 °F 70 °F (2003)
Min Temperature 27 °F 24 °F -22 °F (1979)
Degree Days  
Heating Degree Days 28 32  
Month to date heating degree days 74 64  
Since 1 July heating degree days 2674 2879  
Cooling Degree Days 0 0  
Month to date cooling degree days 0 0  
Year to date cooling degree days 1 0  
Moisture  
Dew Point 24 °F    
Average Humidity 64    
Maximum Humidity 75    
Minimum Humidity 53    
Precipitation  
Precipitation T in 0.07 in 0.72 in (1986)
Month to date precipitation T 0.14  
Year to date precipitation 2.70 1.81  
Sea Level Pressure  
Sea Level Pressure 30.16 in    
Wind  
Wind Speed 9 mph (West)    
Max Wind Speed 22 mph    
Max Gust Speed 29 mph    
Visibility 10 miles    
Events      
T = Trace of Precipitation, MM = Missing Value Source: NWS Daily Summary

Daily Weather History Graph

Daily Weather History Graph

Search for Another Location

Airport:

Trip Planner

Search our weather history database for the weather conditions in past years. The results will help you decide how hot, cold, wet, or windy it might be!

Date:

Astronomy

Feb. 02, 2013 Rise Set
Actual Time 7:17 AM CST 5:36 PM CST
Civil Twilight 6:49 AM CST 6:03 PM CST
Nautical Twilight 6:17 AM CST 6:35 PM CST
Astronomical Twilight 5:46 AM CST 7:06 PM CST
Moon No Moon Rise 10:33 AM CST (2/2)
Length of Visible Light 11h 14m
Length of Day
10h 18m
Waning Gibbous, 59% of the Moon is Illuminated
Feb 2
Waning Gibbous
Feb 3
Last Quarter
Feb 10
New
Feb 17
First Quarter
Feb 25
Full

Hourly Weather History & Observations

Time (CST) Temp. Windchill Dew Point Humidity Pressure Visibility Wind Dir Wind Speed Gust Speed Precip Events Conditions
12:53 AM 28.0 °F 19.3 °F 15.1 °F 58% 30.18 in 10.0 mi South 9.2 mph - N/A   Scattered Clouds
1:53 AM 28.9 °F 19.8 °F 16.0 °F 58% 30.16 in 10.0 mi SSW 10.4 mph - N/A   Mostly Cloudy
3:53 AM 30.0 °F 21.1 °F 17.1 °F 59% 30.14 in 10.0 mi SW 10.4 mph - N/A   Overcast
4:53 AM 32.0 °F 23.6 °F 18.0 °F 56% 30.14 in 10.0 mi WSW 10.4 mph 18.4 mph N/A   Overcast
6:53 AM 30.9 °F 22.2 °F 19.0 °F 61% 30.17 in 10.0 mi WNW 10.4 mph - N/A   Scattered Clouds
7:53 AM 30.0 °F 21.7 °F 19.9 °F 66% 30.18 in 10.0 mi West 9.2 mph - N/A   Clear
8:53 AM 32.0 °F 23.6 °F 21.0 °F 64% 30.20 in 10.0 mi West 10.4 mph - N/A   Clear
9:53 AM 34.0 °F 27.2 °F 21.9 °F 61% 30.21 in 10.0 mi NW 8.1 mph - N/A   Clear
10:53 AM 36.0 °F 29.6 °F 23.0 °F 59% 30.22 in 10.0 mi WNW 8.1 mph - N/A   Overcast
11:53 AM 37.9 °F 32.1 °F 25.0 °F 60% 30.22 in 10.0 mi West 8.1 mph - N/A   Overcast
12:53 PM 37.9 °F 30.9 °F 25.0 °F 60% 30.20 in 10.0 mi WNW 10.4 mph - N/A   Overcast
1:53 PM 39.9 °F 33.4 °F 26.1 °F 58% 30.18 in 10.0 mi WNW 10.4 mph - N/A   Overcast
2:53 PM 41.0 °F 33.1 °F 27.0 °F 57% 30.18 in 10.0 mi WNW 15.0 mph - N/A   Scattered Clouds
3:53 PM 41.0 °F 36.4 °F 28.0 °F 60% 30.18 in 10.0 mi NW 6.9 mph - N/A   Overcast
4:53 PM 39.0 °F 33.4 °F 28.0 °F 65% 30.19 in 10.0 mi NNW 8.1 mph - N/A   Overcast
5:53 PM 36.0 °F - 27.0 °F 70% 30.17 in 10.0 mi Calm Calm - N/A   Partly Cloudy
6:53 PM 34.0 °F - 27.0 °F 75% 30.16 in 10.0 mi Calm Calm - N/A   Clear
7:53 PM 33.1 °F 27.7 °F 27.0 °F 78% 30.14 in 10.0 mi South 5.8 mph - N/A   Partly Cloudy
8:53 PM 33.1 °F 26.1 °F 27.0 °F 78% 30.11 in 10.0 mi SSW 8.1 mph - N/A   Partly Cloudy
9:53 PM 41.0 °F 36.4 °F 30.9 °F 67% 30.08 in 10.0 mi WSW 6.9 mph 17.3 mph 0.00 in   Overcast
10:53 PM 45.0 °F 37.1 °F 30.9 °F 58% 30.09 in 10.0 mi WNW 19.6 mph 27.6 mph 0.00 in   Overcast
11:53 PM 41.0 °F 34.7 °F 30.9 °F 67% 30.11 in 10.0 mi WNW 10.4 mph - N/A   Clear